EHI
0 0 0 0 0 0 0 0 0 0 0 0 1 1 0 0 0 0 0 0 0 0 1 2 2 1 0 0 1 2 3 4 4 5 5 3 1 0 0 0 0 0 1 2 2 1 0 0 0
0 0 0 0 0 0 0 0 0 0 0 0 1 1 0 0 0 0 0 0 0 0 0 1 1 0 0 0 1 2 2 3 4 5 4 3 1 0 0 0 0 0 0 1 1 0 0 0 0
0 0 0 0 0 0 0 0 0 0 0 0 1 1 0 0 0 0 0 0 0 0 0 1 1 0 0 0 1 1 1 1 2 3 3 2 1 0 0 0 0 0 0 0 0 0 0 0 0
0 0 0 0 0 0 0 0 0 0 0 0 0 0 0 0 0 0 0 0 0 0 0 2 2 1 0 1 1 1 0 0 0 1 2 1 0 0 0 0 0 0 0 0 0 0 0 0 0
0 0 0 0 0 0 0 0 0 0 0 0 0 0 0 0 0 0 0 0 0 0 0 1 3 2 1 1 1 0 0 0 0 0 0 0 0 0 0 0 0 0 0 0 0 0 0 0 0
0 0 0 0 0 0 0 0 0 0 0 0 0 0 0 0 0 0 0 0 0 0 0 0 1 2 1 0 0 0 0 0 0 0 0 0 0 0 0 0 0 0 0 0 0 0 0 0 0
0 0 0 0 0 0 0 0 0 0 0 0 0 0 0 0 0 0 0 0 0 0 0 0 0 0 0 0 0 0 0 0 0 0 0 0 0 0 0 0 0 0 0 0 0 0 0 0 0
0 0 0 0 0 0 0 0 0 0 0 0 0 0 0 0 0 0 1 0 0 0 0 0 0 0 0 0 0 0 0 0 0 0 0 0 0 0 0 0 0 0 0 0 0 0 0 0 0
0 0 0 0 0 0 0 0 0 0 0 0 0 0 0 0 0 0 0 0 0 0 0 0 0 0 0 0 0 0 0 0 0 0 0 0 0 0 0 0 0 0 0 0 0 0 0 0 0
0 0 0 0 0 0 0 0 0 0 0 0 0 0 0 0 0 0 0 0 0 0 0 0 0 0 0 0 0 0 0 0 0 0 0 0 0 0 0 0 0 0 0 0 0 0 0 0 0
0 0 0 0 0 0 0 0 0 0 0 0 0 0 0 0 0 0 0 0 0 0 0 0 0 0 0 0 0 0 0 0 0 0 0 0 0 0 0 0 0 0 0 0 0 0 0 0 0
0 0 0 0 0 0 0 0 0 0 0 0 0 0 0 0 0 0 0 0 0 0 0 0 0 0 0 0 0 0 0 0 0 0 0 0 0 0 0 0 0 0 0 0 0 0 0 0 0
0 0 0 0 0 0 0 0 0 0 0 0 0 0 0 0 0 0 0 0 0 0 0 0 0 0 0 0 0 0 0 0 0 0 0 0 0 0 0 0 0 0 0 0 0 0 0 0 0
0 0 0 0 0 0 0 0 0 0 0 0 0 0 0 0 0 0 0 0 0 0 0 0 0 1 0 0 0 0 0 0 0 0 0 0 0 0 0 0 0 0 0 0 0 0 0 0 0
0 0 0 0 0 0 0 0 0 0 0 0 0 0 0 0 0 0 0 0 0 0 0 0 0 0 0 0 0 0 0 0 0 0 0 0 0 0 0 0 0 0 0 0 0 0 0 0 0
0 0 0 0 0 0 0 0 0 0 0 0 0 0 0 0 0 0 0 0 0 0 0 0 0 0 0 0 0 0 0 0 0 0 0 0 0 0 0 0 0 0 0 0 0 0 0 0 0
0 0 0 0 0 0 0 0 0 0 0 0 0 0 0 0 0 0 0 0 0 0 0 0 0 0 0 0 0 0 0 0 0 0 0 0 0 0 0 0 0 0 0 0 0 0 0 0 0
0 0 0 0 0 0 0 0 0 0 0 0 0 0 0 0 0 0 0 0 0 0 0 0 0 0 0 0 0 0 0 0 0 0 0 0 0 0 0 0 0 0 0 0 0 0 0 0 0
0 0 0 0 0 0 0 0 0 1 1 0 0 0 0 0 0 0 0 0 0 0 0 0 0 0 0 0 0 0 0 0 0 0 0 0 0 0 0 0 0 0 0 0 0 0 0 0 0
0 0 0 0 0 0 0 0 0 1 1 0 0 1 2 2 2 1 0 0 0 0 0 0 0 0 0 0 0 0 0 0 0 0 0 0 0 0 0 0 0 0 0 0 0 0 0 0 0
0 0 0 0 0 0 0 0 0 1 1 1 0 1 2 4 3 1 0 0 0 0 0 0 0 0 0 0 0 0 0 0 0 0 0 0 0 0 0 0 0 0 0 0 0 0 0 0 0
0 0 0 0 0 0 0 0 0 0 0 1 1 0 2 3 3 1 0 0 0 0 0 0 0 0 0 0 0 0 0 0 0 0 0 0 0 0 0 0 0 0 0 0 0 0 0 0 0
0 0 0 0 0 0 0 0 0 0 0 1 1 0 1 2 3 3 1 0 0 0 0 0 0 0 0 0 0 0 0 0 0 0 0 0 0 0 0 0 0 0 0 0 0 0 0 0 0
0 0 0 0 0 0 0 0 0 0 0 0 0 0 1 2 4 4 3 1 0 0 0 0 0 0 0 0 0 0 0 0 0 0 0 0 0 0 0 0 0 0 0 0 0 0 0 0 0
0 0 0 0 0 0 0 0 0 0 0 0 0 0 1 3 5 6 4 1 0 0 0 0 0 0 0 0 0 0 0 0 0 0 0 0 0 0 0 0 0 0 0 0 0 0 0 0 0
0 0 0 0 0 0 0 0 0 0 0 0 0 0 2 4 6 6 5 2 0 0 0 0 0 0 0 0 0 0 0 0 0 0 0 0 0 0 0 0 0 0 0 0 0 0 0 0 0
0 0 0 0 0 0 0 0 0 0 0 0 0 0 2 5 6 6 5 3 1 0 0 0 0 0 0 0 0 0 0 0 0 0 0 0 0 0 0 0 0 0 0 0 0 0 0 0 0
0 0 0 0 0 0 0 0 0 0 0 0 0 0 2 5 6 6 6 4 2 0 0 0 0 0 0 0 0 0 0 0 0 0 0 0 0 0 0 0 0 0 0 0 0 0 0 0 0
0 0 0 0 0 0 0 0 0 0 0 1 0 0 2 5 6 6 6 5 2 0 0 0 0 0 0 0 0 0 0 0 0 0 0 0 0 0 0 0 0 0 0 0 0 0 0 0 0
0 0 0 0 0 0 0 0 0 0 0 1 0 0 2 4 5 4 5 5 2 0 0 0 0 0 0 0 0 0 0 0 0 0 0 0 0 0 0 0 0 0 0 0 0 0 0 0 0
Wind_Speed
2 1 2 3 4 4 2 1 1 2 4 5 9 10 9 7 5 6 1 4 6 5 4 7 11 12 12 13 13 13 13 13 12 12 11 11 11 11 11 11 11 10 10 9 9 8 8 8 8
1 1 3 4 4 3 1 0 4 4 5 6 8 9 8 7 6 6 3 5 6 6 5 7 11 12 12 13 13 12 12 12 12 11 11 11 11 11 10 10 10 9 9 8 8 7 7 7 8
1 0 3 3 2 3 3 2 5 6 5 5 6 6 6 4 4 3 5 7 7 6 5 7 11 12 12 12 12 12 11 11 11 10 10 10 10 10 10 9 9 8 8 7 7 6 6 7 7
2 4 4 4 3 1 3 4 6 7 6 6 7 7 4 3 2 5 8 8 9 6 5 7 12 12 12 12 12 11 11 11 10 9 9 9 9 9 9 8 8 8 7 6 6 5 5 6 7
3 4 4 3 2 1 1 4 5 6 5 6 8 7 4 3 7 9 8 8 9 6 5 6 11 11 11 11 11 10 10 10 9 8 8 8 8 8 8 7 8 7 7 6 5 4 5 5 6
4 4 4 2 3 2 2 4 8 10 9 8 8 6 3 3 6 6 7 7 8 7 5 6 10 11 11 11 10 9 9 8 8 7 7 7 6 6 6 6 6 6 6 5 5 4 4 4 5
4 4 2 2 3 3 3 3 5 7 7 5 5 6 4 2 4 6 7 7 7 6 5 4 4 6 9 9 9 8 7 6 6 6 6 5 5 5 5 5 5 5 4 4 3 2 3 4 5
4 5 3 2 3 2 2 4 4 6 6 5 5 7 5 5 5 6 6 6 6 5 4 4 3 3 3 3 7 6 6 6 5 5 5 4 4 4 4 3 3 3 3 2 2 2 2 3 4
4 5 2 2 3 3 4 6 4 5 7 5 4 5 7 8 7 7 6 5 5 5 3 3 3 2 2 2 4 4 4 4 3 3 3 2 1 1 1 1 2 2 2 3 2 2 3 4 4
5 4 2 2 4 4 5 6 5 5 8 6 6 6 8 8 7 7 6 6 6 5 4 4 4 3 2 2 2 1 1 1 1 1 1 1 1 0 0 1 2 2 3 4 4 3 4 3 2
4 4 2 3 4 5 5 5 4 7 5 5 9 9 8 8 6 6 5 5 5 5 5 5 4 3 3 1 2 1 1 1 1 1 1 1 1 1 1 1 2 3 4 3 4 4 2 2 2
4 3 4 4 4 3 4 5 5 4 5 6 8 9 8 8 7 7 6 4 4 5 4 4 4 3 2 2 2 1 1 1 1 1 2 2 1 1 1 1 1 2 2 2 2 2 3 3 3
5 4 5 6 8 6 8 7 6 4 6 7 8 8 8 7 6 5 5 4 5 4 4 4 4 4 3 3 2 2 2 1 1 2 2 2 2 2 1 1 1 2 2 2 2 3 3 4 4
5 6 6 6 6 5 9 5 5 4 6 7 8 7 7 6 6 6 5 5 5 5 5 4 5 5 4 4 3 2 2 2 3 2 2 3 2 2 2 2 2 2 2 2 2 3 3 3 3
6 6 4 3 4 4 7 5 3 5 7 7 6 6 6 5 6 7 7 6 6 5 5 5 5 5 5 5 4 3 3 3 3 3 3 3 3 3 3 3 3 2 2 3 3 4 4 4 4
4 4 2 1 3 3 6 3 3 6 8 6 5 5 5 5 6 6 6 6 6 6 5 4 5 5 5 4 4 3 3 4 3 3 3 4 4 4 4 3 3 3 3 3 3 3 4 4 3
2 2 2 2 2 3 5 4 5 5 8 7 6 6 6 6 6 6 7 7 7 6 6 5 5 5 4 4 4 4 4 4 3 3 3 4 4 4 4 3 3 3 3 3 3 3 3 3 3
4 3 3 3 2 4 4 4 6 6 8 7 6 6 7 7 7 7 7 7 7 7 6 6 5 5 5 4 4 3 4 3 3 3 3 4 4 4 4 4 4 4 4 3 3 3 3 3 2
5 4 3 3 4 4 5 5 6 7 6 6 6 7 7 7 6 6 7 8 7 6 6 5 5 4 4 3 3 3 2 2 3 3 4 4 4 5 5 4 4 4 4 3 3 3 4 4 2
3 3 2 1 3 4 4 4 5 7 9 10 10 10 9 7 6 6 7 7 7 7 6 5 6 5 4 3 3 2 2 2 1 2 3 4 4 4 4 4 3 3 4 5 4 3 3 3 3
1 5 4 4 2 2 3 2 3 4 5 6 9 10 10 11 11 9 8 7 7 7 7 7 6 5 4 4 4 3 3 3 3 3 2 3 4 4 4 4 4 3 3 3 3 3 4 2 3
2 4 4 4 4 1 2 2 5 5 5 6 8 9 10 10 10 9 9 9 8 8 7 7 6 6 5 5 5 5 4 2 1 1 1 2 3 4 4 4 4 4 3 3 3 4 3 3 2
4 3 3 3 3 0 1 2 6 3 5 8 9 10 11 11 11 10 11 10 8 8 7 6 6 5 5 5 6 6 4 2 2 2 3 2 3 3 3 4 4 4 3 3 4 4 4 3 2
3 4 4 4 3 1 4 4 6 5 10 9 9 11 12 11 10 9 9 8 7 6 6 6 6 5 5 5 5 6 6 5 4 3 2 1 1 2 3 3 4 4 3 3 3 3 4 3 4
5 6 3 3 2 5 3 3 8 8 8 11 11 11 12 11 11 10 10 9 8 8 7 6 7 5 5 5 5 6 6 6 6 4 3 2 1 1 1 2 3 3 3 3 3 4 4 4 4
3 7 5 3 3 4 1 4 7 6 6 7 8 9 10 11 11 12 12 11 10 9 8 7 7 6 5 6 6 5 6 4 3 4 3 3 2 2 2 3 3 3 3 4 4 3 3 3 4
4 3 6 5 1 1 3 3 4 1 3 5 7 8 11 12 12 12 11 10 10 9 9 8 8 6 6 6 6 5 5 5 4 4 3 3 2 2 3 3 3 3 3 3 4 3 3 3 3
5 5 4 3 2 2 3 3 4 4 5 6 8 9 10 10 11 11 11 10 9 8 7 7 8 7 6 6 6 5 5 5 5 4 4 3 3 3 4 4 3 3 3 3 4 3 3 4 3
3 3 4 3 3 4 2 6 6 8 8 9 9 9 11 11 11 11 10 9 9 8 7 7 7 6 6 6 5 6 5 4 4 4 4 4 4 4 4 4 4 4 3 3 4 3 4 4 3
6 6 6 4 3 3 3 7 5 6 7 8 9 8 10 11 11 11 10 9 8 9 8 7 7 6 6 6 6 6 5 4 4 4 4 4 5 4 4 4 4 3 3 3 4 4 4 4 4
Wind_Direction
294 344 98 68 58 54 44 350 100 70 58 55 71 76 76 59 79 112 158 133 121 118 108 108 105 103 101 100 100 98 97 96 94 93 92 89 85 84 82 82 80 79 79 78 74 70 69 66 65
28 59 76 63 81 82 28 316 98 98 129 117 72 71 72 69 76 100 123 130 122 118 112 110 107 105 104 103 101 99 97 97 96 94 92 91 88 86 84 83 82 80 80 80 74 69 67 64 60
320 106 84 72 90 143 150 161 117 105 102 94 79 56 64 77 88 109 144 136 120 111 107 113 110 108 105 104 104 105 102 101 99 95 92 91 90 89 86 82 82 83 84 84 80 70 62 59 55
60 47 56 72 85 154 154 155 127 105 73 65 95 72 61 46 103 130 139 130 118 112 111 116 115 113 110 108 107 106 105 102 100 96 94 93 91 89 89 85 84 86 86 85 80 71 62 56 51
72 74 64 67 80 72 120 135 114 99 82 81 92 93 72 37 108 128 135 128 124 121 119 123 118 118 118 116 113 110 108 106 103 100 98 96 94 94 92 87 86 87 87 87 80 70 59 51 45
60 68 81 96 101 76 59 85 94 93 104 101 96 100 86 107 121 136 131 128 128 130 127 123 123 123 124 123 120 117 115 112 110 109 107 103 102 103 103 94 89 87 83 79 74 65 48 41 38
102 89 104 123 110 93 101 86 90 112 107 100 111 102 114 136 143 138 130 128 127 129 123 116 125 125 130 129 127 124 122 120 116 116 117 118 112 108 108 105 94 90 88 81 75 61 27 21 26
123 96 72 80 112 94 81 78 85 93 99 109 107 123 150 171 143 127 121 118 122 124 129 135 134 125 123 130 135 131 128 124 118 118 120 114 106 103 103 105 98 95 93 80 62 34 3 3 18
85 80 100 149 137 132 113 97 74 67 89 74 70 114 142 143 129 116 111 112 126 141 146 155 157 153 150 164 145 129 126 121 110 104 113 93 58 40 51 72 89 74 60 44 22 355 358 14 27
80 104 160 165 138 137 119 106 106 88 83 83 86 99 122 129 128 125 131 136 141 152 170 178 172 176 173 169 110 91 88 74 61 58 57 69 89 359 20 352 2 9 14 10 11 4 7 18 27
113 137 126 92 113 121 101 83 83 112 105 139 143 144 140 134 134 137 141 141 145 151 153 166 169 172 157 130 118 73 56 51 34 58 114 85 69 33 27 4 355 1 7 5 8 14 22 33 49
105 102 112 113 100 92 97 99 85 100 147 154 150 148 142 142 152 154 151 148 134 126 141 151 150 144 142 126 112 107 94 72 52 54 111 109 86 61 41 24 4 7 9 13 16 26 41 55 64
100 109 102 101 95 93 95 96 105 103 121 125 129 135 143 152 156 153 151 141 121 116 122 132 130 128 126 111 102 98 97 94 84 71 87 111 106 89 64 42 32 23 28 40 44 53 58 61 65
128 115 102 101 101 101 104 99 96 129 128 127 131 144 155 159 154 145 144 135 130 126 121 116 112 113 111 103 98 93 88 81 73 63 59 87 95 91 77 59 44 33 36 55 67 65 66 62 71
112 104 84 101 115 128 105 75 118 150 140 136 145 151 153 159 149 154 156 149 148 139 129 123 119 103 97 96 96 87 76 75 66 52 52 72 80 82 78 64 48 36 43 57 60 53 56 63 66
81 78 93 213 147 156 115 142 197 157 149 150 160 162 160 163 160 161 156 153 149 137 129 123 113 101 94 94 94 86 73 73 67 59 55 63 74 79 75 66 50 40 50 58 66 54 56 53 56
57 126 167 217 174 140 125 169 202 175 159 168 177 175 169 165 163 167 163 158 151 145 137 124 111 106 100 94 87 81 74 68 62 57 56 57 62 70 76 69 53 52 56 51 67 58 67 63 58
184 172 181 194 194 142 145 183 187 189 177 184 187 182 177 176 179 174 165 156 149 147 141 130 114 112 107 92 78 68 62 56 56 57 57 59 59 65 71 68 55 57 61 51 58 64 56 63 62
163 154 169 200 179 146 162 183 197 197 188 193 196 192 188 188 182 166 159 151 144 144 139 134 124 126 118 103 96 87 75 58 54 57 59 59 61 70 75 72 61 60 66 62 63 73 62 45 50
154 149 163 165 159 141 162 207 215 201 202 199 195 194 189 183 171 164 158 154 153 154 148 142 137 139 133 129 126 125 120 91 75 51 49 52 60 64 81 81 74 67 68 57 54 65 71 43 41
194 171 176 167 114 75 114 305 263 246 221 205 196 194 186 183 178 173 166 164 156 160 161 155 150 145 138 128 107 89 68 53 45 42 36 33 60 69 78 81 81 73 75 72 60 68 82 73 33
191 192 163 146 120 222 157 238 265 231 221 206 196 190 187 186 180 174 167 167 168 171 164 156 152 148 143 132 126 126 125 129 159 134 77 40 53 67 77 82 83 78 73 74 64 67 74 90 62
189 181 148 140 129 94 213 178 272 210 213 218 205 193 189 185 180 177 174 172 170 166 163 160 152 150 146 139 140 134 131 140 129 100 82 57 41 53 66 77 79 79 76 76 69 64 66 74 85
131 79 52 57 73 283 225 182 264 217 212 211 206 194 188 183 178 174 172 163 162 159 156 156 153 154 152 146 146 145 143 138 125 115 106 77 46 41 48 72 75 79 81 78 77 76 76 72 72
92 88 47 14 10 258 228 189 244 229 210 199 194 190 184 178 173 168 166 165 166 163 163 160 154 158 158 153 153 154 152 148 150 152 144 133 100 77 55 77 78 78 83 83 80 77 73 72 75
166 136 153 185 219 273 265 227 257 240 205 192 183 176 175 173 174 174 175 172 170 169 168 163 160 163 163 160 160 157 152 150 155 159 152 152 151 156 133 112 93 84 82 81 77 73 72 72 73
152 176 172 149 202 257 273 279 317 5 158 169 168 168 176 177 177 177 176 173 171 170 172 168 165 166 165 164 158 153 156 156 156 155 148 148 148 142 123 113 103 88 81 80 83 75 69 74 69
161 158 111 129 170 252 284 259 234 224 204 187 179 181 183 179 177 176 175 176 175 173 171 168 167 168 166 161 161 157 159 160 153 144 147 149 144 129 121 113 104 91 82 79 80 77 74 79 68
180 165 143 146 164 165 239 266 230 204 198 189 191 186 178 177 179 179 179 177 173 169 167 168 167 161 161 160 154 150 155 148 141 147 157 155 143 139 133 128 116 106 95 88 87 85 84 82 69
179 184 154 159 209 182 191 266 265 193 192 185 185 183 181 178 177 177 175 170 169 171 172 172 167 166 169 162 153 154 151 144 145 151 157 150 144 143 139 133 122 116 109 102 103 101 91 91 85